PROFILE

 METAR AND TAF INFORMATION
ADDS - METARS form results

(0835 UTC 19 August 2019)
http://aviationweather.gov/metar/data/
 
KBOS 190827Z 23007KT 10SM OVC015 25/22 A2995 RMK AO2 T02500222
KBOS 190754Z 22006KT 10SM OVC011 25/22 A2995 RMK AO2 SLP142 T02500222
KBOS 190826Z 1908/2012 21007KT P6SM OVC010 FM191100 22007KT P6SM BKN070 FM192100 20010G17KT P6SM SCT100 FM200000 21009KT P6SM BKN100 FM200300 25007KT P6SM SCT090 FM200500 28007KT P6SM FEW250 

 AIRPORT MAP

 RUNWAY INFORMATION
Runway 04L Runway length 7861 ft Runway width 150 ft
Runway elevation 14 ft Runway displaced threshold 0 ft Runway heading 20
Runway 22R Runway length 7861 ft Runway width 150 ft
Runway elevation 15 ft Runway displaced threshold 815 ft Runway heading 200
Runway 04R Runway length 10005 ft Runway width 150 ft
Runway elevation 18 ft Runway displaced threshold 1154 ft Runway heading 20
Runway 22L Runway length 10005 ft Runway width 150 ft
Runway elevation 16 ft Runway displaced threshold 1199 ft Runway heading 200
Runway 09 Runway length 7000 ft Runway width 150 ft
Runway elevation 17 ft Runway displaced threshold 0 ft Runway heading 77
Runway 27 Runway length 7000 ft Runway width 150 ft
Runway elevation 15 ft Runway displaced threshold 0 ft Runway heading 257
Runway 14 Runway length 5000 ft Runway width 100 ft
Runway elevation 17 ft Runway displaced threshold 0 ft Runway heading 125
Runway 32 Runway length 5000 ft Runway width 100 ft
Runway elevation 20 ft Runway displaced threshold 0 ft Runway heading 305
Runway 15L Runway length 2557 ft Runway width 100 ft
Runway elevation 15 ft Runway displaced threshold 0 ft Runway heading 135
Runway 33R Runway length 2557 ft Runway width 100 ft
Runway elevation 14 ft Runway displaced threshold 0 ft Runway heading 315
Runway 15R Runway length 10083 ft Runway width 150 ft
Runway elevation 17 ft Runway displaced threshold 880 ft Runway heading 135
Runway 33L Runway length 10083 ft Runway width 150 ft
Runway elevation 15 ft Runway displaced threshold 0 ft Runway heading 315

 AIRPORT FREQUENCIES
Type APP Name BOSTON APP Frequency 118.25 MHZ
Type ATIS Name ATIS Frequency 135 MHZ
Type CLD Name CLNC DEL Frequency 121.65 MHZ
Type DEP Name BOSTON DEP Frequency 133 MHZ
Type GND Name GND Frequency 121.9 MHZ
Type GTE Name GATE Frequency 134.05 MHZ
Type RDO Name BRIDGEPORT Frequency 122.4 MHZ
Type TWR Name BOSTON TWR Frequency 124.725 MHZ
Type UNIC Name UNICOM Frequency 122.95 MHZ

 AIRPORT NEAR NAVIGATION AIDS
Type NDB Name Miltt Frequency 375 KHZ
Type VORTAC Name Boston Frequency 112700 KHZ
Type NDB Name Hullz Frequency 346 KHZ
Type NDB Name Lyndy Frequency 382 KHZ